Theta_e
307 306 305 304 305 306 310 312 317 316 315 317 316 317 318 316 322 323 322 321 322 322 324 323 323 324 326 326 329 330 333 337 344 343 339 340 343 344 345 347 351 345 342 340
307 305 305 305 304 305 309 314 315 316 315 320 319 316 317 318 319 321 321 321 320 321 322 324 323 325 325 323 325 330 333 335 341 343 340 340 344 344 344 343 343 346 342 338
308 305 305 304 304 304 308 313 315 322 319 319 321 320 319 317 316 318 319 319 320 321 322 323 326 326 325 323 326 340 332 334 338 343 343 341 343 344 343 340 345 346 343 339
306 305 304 304 303 304 309 314 316 317 320 324 322 321 322 322 318 318 318 319 319 320 322 323 324 324 325 325 327 328 328 331 335 338 339 340 342 341 342 342 342 344 342 341
306 305 304 304 304 306 310 314 315 315 316 317 320 322 323 323 322 319 322 320 321 320 322 323 323 324 326 328 328 329 328 330 333 335 337 336 340 339 339 340 338 344 344 341
304 304 304 304 304 306 309 309 309 311 312 314 317 318 322 324 323 323 323 325 323 323 323 323 324 326 327 328 329 329 328 328 333 336 334 337 337 337 336 338 339 343 343 341
303 303 303 304 304 305 308 308 308 310 312 312 313 315 318 325 326 327 325 324 327 326 327 327 327 327 328 328 329 327 330 330 331 335 336 341 338 337 336 336 338 342 343 343
305 304 303 305 304 304 307 308 308 307 310 310 312 313 315 316 319 325 327 328 327 327 329 328 327 326 327 327 327 329 327 330 330 335 336 338 338 338 337 336 338 339 343 345
306 307 306 305 304 304 306 308 308 308 308 310 310 311 313 315 321 322 327 325 328 329 329 330 330 325 325 326 326 328 328 329 331 332 334 341 339 337 336 336 338 339 342 347
306 306 307 306 304 304 305 307 308 308 309 308 309 310 311 315 318 325 327 328 330 328 330 331 329 327 325 326 330 331 330 330 332 332 334 335 337 337 336 339 338 337 342 347
306 306 306 305 305 305 305 307 308 307 308 307 307 308 309 311 313 322 321 328 330 331 332 331 329 328 327 329 329 333 332 333 331 332 334 335 335 337 339 338 341 342 341 345
304 305 306 306 305 304 305 307 307 306 306 307 307 307 307 308 309 311 315 319 328 330 331 330 329 330 329 329 331 333 333 331 330 331 333 339 336 336 336 336 340 345 347 350
302 304 305 305 305 304 304 307 308 305 307 307 308 308 307 307 307 308 313 322 321 325 325 329 332 336 337 334 332 333 333 332 333 332 332 333 334 336 336 336 337 346 348 353
303 304 305 305 305 304 303 305 306 306 304 307 307 308 309 309 309 308 309 310 318 320 323 329 331 334 332 338 336 333 333 334 335 333 332 333 332 335 339 337 337 339 349 353
302 302 304 305 303 303 305 306 305 305 303 309 309 307 310 311 312 312 311 310 312 318 322 327 330 331 335 337 339 341 335 334 335 332 333 344 339 335 339 341 342 344 352 354
302 302 303 304 304 304 308 307 305 306 305 305 311 310 313 315 312 313 313 313 315 319 326 327 327 329 332 336 342 341 342 341 340 338 342 339 332 333 335 342 346 346 351 354
305 304 304 305 304 306 308 309 306 305 304 306 309 312 317 316 316 318 318 317 320 322 325 328 329 332 330 335 344 344 340 339 340 340 341 345 343 340 339 340 342 344 351 355
306 305 305 303 304 307 307 308 304 304 305 307 311 315 320 319 323 324 324 324 322 323 325 328 331 332 333 341 342 339 337 337 339 342 342 343 344 345 342 342 350 353 355 357
306 303 302 307 308 310 310 306 306 304 307 311 313 317 323 319 322 322 322 324 327 326 327 328 330 334 340 342 341 341 340 341 340 339 341 344 346 349 347 347 353 355 356 358
306 304 308 311 310 306 306 308 310 308 310 310 310 312 317 321 322 322 324 325 327 327 325 326 330 335 334 339 340 341 342 342 338 342 352 349 350 349 352 353 354 357 358 359
305 307 308 307 306 309 312 314 315 315 315 314 314 315 318 315 323 325 324 327 327 329 329 328 334 338 341 341 342 341 341 340 339 345 348 352 351 352 355 354 356 356 357 358
305 305 305 307 311 313 314 315 316 316 319 318 318 320 318 319 317 324 324 327 329 329 326 329 337 343 341 342 341 341 342 337 346 354 354 354 355 354 355 357 357 357 355 354
304 307 310 311 312 313 314 315 318 320 319 322 321 322 321 318 315 324 328 327 329 327 330 337 340 338 339 338 341 343 341 339 342 353 353 354 354 354 355 357 355 354 354 354
306 310 310 311 312 312 313 315 318 319 318 319 319 321 323 322 320 326 330 329 329 330 334 342 339 335 336 337 338 343 345 344 341 346 353 354 355 355 354 353 353 354 355 353
307 309 312 311 310 311 313 314 317 318 318 319 321 323 322 325 324 323 327 330 332 332 338 338 335 331 331 334 336 341 341 344 346 343 347 353 354 354 353 352 352 352 352 352
305 308 311 311 313 314 312 314 316 318 318 318 320 323 323 323 323 325 326 329 329 335 336 333 328 326 328 331 334 337 339 340 342 346 346 344 351 354 352 351 351 351 351 351
309 311 309 310 310 310 313 313 315 315 317 321 322 324 324 321 324 324 325 327 335 335 328 326 327 326 326 327 330 332 336 338 341 341 345 347 348 350 352 354 350 350 349 349
Wind_Speed
20 21 24 27 32 39 18 7 3 5 5 5 4 11 8 3 8 8 6 5 4 5 5 15 14 22 14 16 21 25 25 12 11 18 5 8 13 11 11 8 7 5 5 7
18 20 21 23 27 30 14 7 4 2 4 6 9 9 10 9 10 11 10 7 5 2 4 7 14 11 6 3 14 24 23 17 15 9 9 7 13 11 10 9 2 6 5 10
17 18 20 22 25 26 11 4 3 3 4 3 9 9 14 15 10 15 13 9 6 8 7 5 8 11 5 1 11 11 10 20 20 14 15 14 15 13 12 9 8 7 7 22
16 16 16 18 21 22 8 1 3 2 3 4 8 9 10 11 16 11 10 13 16 12 9 9 9 6 7 6 4 7 16 21 23 18 5 8 14 14 13 14 13 11 9 22
14 13 13 16 19 17 3 5 4 4 9 9 12 10 12 16 14 17 15 17 14 18 15 11 10 5 7 5 3 12 16 18 24 20 15 10 11 12 11 11 11 9 10 15
13 12 12 13 14 12 4 5 2 4 5 9 10 12 14 14 15 15 15 12 16 15 16 9 7 5 6 3 3 5 10 17 18 21 21 18 18 16 12 12 9 13 11 16
12 13 12 11 9 7 5 4 3 4 8 8 10 14 12 12 14 15 15 17 13 6 2 7 11 11 11 11 11 9 6 12 14 16 19 27 14 18 18 15 9 13 9 19
13 13 12 10 8 7 6 3 2 1 4 10 14 16 17 19 13 14 16 10 12 8 9 9 8 10 12 17 17 15 12 10 11 13 19 13 20 19 14 11 14 14 13 9
13 13 13 11 7 7 8 9 7 4 2 7 6 10 15 14 9 9 16 16 7 9 9 10 15 14 14 14 12 19 16 13 11 12 21 27 16 16 16 15 15 18 20 15
10 10 11 10 8 7 9 11 9 6 5 9 15 11 6 10 8 10 7 11 12 14 12 12 13 15 14 17 20 21 18 15 17 16 14 17 17 19 14 16 10 14 20 21
12 11 11 10 10 7 8 11 8 10 3 10 15 17 13 12 11 6 5 6 9 10 15 13 11 11 14 14 19 23 18 15 14 18 18 20 21 18 20 15 8 11 19 22
13 13 12 11 11 8 7 12 7 10 6 4 11 22 24 25 30 11 3 8 7 2 7 8 9 8 10 15 14 22 19 19 16 18 16 1 14 20 13 15 10 9 17 19
15 14 14 13 12 9 8 12 10 6 3 7 17 14 24 34 37 26 6 5 3 1 5 4 2 5 6 12 17 19 21 21 20 17 20 24 12 16 21 21 14 13 14 20
16 15 14 15 14 13 11 14 10 7 2 4 6 9 14 16 25 34 32 21 5 8 6 4 4 5 3 9 5 14 6 14 21 20 19 19 23 17 17 15 17 11 15 20
17 16 14 14 14 14 14 16 17 16 6 3 7 25 17 13 19 22 25 25 10 5 4 3 4 4 6 9 7 9 12 10 16 14 18 16 15 23 15 14 15 15 18 20
18 17 16 16 15 12 7 4 4 14 20 2 3 8 6 5 18 17 16 12 6 4 3 4 4 12 5 7 10 7 4 7 8 7 9 11 22 21 24 18 16 17 21 24
20 20 18 18 14 9 7 4 1 9 12 2 4 4 2 12 13 7 7 12 2 3 3 5 7 6 4 8 11 6 4 7 10 13 11 12 15 13 15 18 16 12 15 19
21 22 19 14 7 7 8 11 13 12 4 3 3 4 3 9 4 4 4 6 3 5 3 4 6 5 6 5 6 6 8 10 12 12 13 17 13 15 12 15 15 18 19 21
22 19 9 3 5 5 4 6 7 18 4 3 2 3 1 6 2 3 2 3 5 4 3 3 4 5 7 4 8 9 9 8 12 13 14 15 18 16 16 19 20 20 19 22
16 4 6 3 4 3 2 5 5 5 5 3 3 4 3 5 3 2 3 3 3 4 5 4 5 6 5 7 9 10 10 11 9 11 11 14 17 18 18 22 20 17 19 19
4 3 2 5 6 5 4 4 4 5 4 6 4 7 4 2 2 2 2 2 3 3 4 4 3 4 1 8 10 9 10 10 10 10 11 10 14 14 15 16 15 16 19 18
5 9 9 5 4 4 4 4 4 5 2 4 4 3 4 2 1 3 4 2 3 4 3 2 2 3 6 7 9 10 9 9 7 3 2 5 7 9 12 14 14 15 21 26
3 3 3 2 3 2 5 5 4 3 3 3 2 2 1 1 1 4 4 5 3 3 3 3 1 4 6 8 8 9 9 8 8 7 7 7 9 11 10 12 14 19 20 23
2 3 4 5 5 5 4 4 2 2 3 4 4 3 3 4 5 3 3 3 2 2 3 5 6 5 7 8 8 10 11 11 10 9 8 9 9 8 8 11 13 16 15 22
3 3 4 6 5 3 3 2 3 3 2 4 4 4 4 5 4 3 4 6 4 4 1 3 5 5 7 11 12 12 11 13 10 9 9 9 9 9 8 11 12 11 16 19
3 5 5 6 5 5 5 5 4 1 4 4 3 4 4 1 1 3 3 3 2 2 3 7 5 5 9 11 12 13 12 11 10 10 9 7 7 9 8 14 13 12 15 17
4 4 3 4 4 5 7 4 3 1 4 5 3 4 2 3 2 2 2 2 4 8 7 7 6 9 7 11 13 13 11 11 10 10 11 10 10 10 10 12 12 12 12 17
Wind_Direction
353 354 356 357 357 357 360 312 259 5 320 218 221 240 221 9 248 211 249 281 259 254 190 218 226 221 189 218 198 211 224 221 200 209 150 269 217 234 212 229 162 288 314 102
351 354 357 360 3 4 336 327 308 354 265 245 219 229 252 246 248 226 227 237 243 203 216 224 214 232 65 259 232 203 208 228 228 162 178 191 218 219 231 236 337 188 224 132
349 352 358 0 1 358 344 296 279 159 218 291 284 268 256 240 219 256 238 256 228 224 220 215 191 208 183 234 227 3 261 217 231 203 214 191 207 204 217 232 215 167 249 136
343 350 357 1 358 354 334 312 58 19 278 196 274 261 296 263 236 214 229 235 235 218 228 210 220 213 196 184 155 215 220 220 231 236 234 210 199 199 195 227 261 272 178 157
345 352 359 1 357 360 312 333 337 332 287 281 263 240 247 253 253 244 226 235 223 227 231 229 189 205 218 175 165 207 214 226 219 222 226 219 226 207 207 221 254 261 237 171
347 348 349 351 351 5 352 5 274 280 279 274 261 254 250 257 256 260 254 246 239 216 219 228 249 254 311 276 248 194 224 220 213 221 220 222 231 232 221 226 214 230 194 162
335 334 341 348 342 358 331 359 330 294 270 265 274 273 271 281 278 277 246 224 238 230 63 243 240 241 245 247 235 240 208 220 218 218 217 225 227 226 219 230 229 219 238 160
324 324 328 333 335 321 292 264 241 193 270 298 286 271 270 270 280 266 258 234 241 200 221 226 215 217 228 232 226 214 224 216 220 217 226 208 228 214 222 211 224 206 209 165
327 323 322 320 316 298 279 266 226 199 244 239 348 327 288 271 260 280 257 237 246 239 232 215 214 204 200 194 188 202 205 221 231 209 233 217 209 205 202 221 237 193 203 175
333 332 338 338 312 281 265 272 239 254 252 255 266 264 295 298 252 248 281 211 221 222 220 216 216 222 209 207 181 186 192 201 210 222 223 236 205 220 182 216 223 192 192 188
321 324 327 325 330 291 248 266 245 225 238 262 260 260 251 268 264 278 16 260 219 200 221 214 210 230 212 228 196 182 184 188 201 218 217 234 205 183 199 206 184 187 194 185
312 314 317 318 319 322 255 265 260 245 237 269 258 264 252 250 254 275 281 301 300 300 230 214 221 218 220 218 214 177 203 208 199 210 206 136 221 209 198 227 204 190 189 183
311 310 307 304 303 300 272 274 261 248 254 267 249 263 265 239 237 234 246 227 283 136 352 336 302 255 292 216 232 187 218 204 223 205 213 224 231 218 206 225 207 196 188 177
314 310 305 299 295 290 277 263 266 229 317 277 292 292 243 243 221 219 220 249 319 338 325 285 255 252 231 259 269 249 207 193 217 225 214 216 230 225 228 223 222 217 179 179
313 311 307 301 298 297 284 267 255 232 183 276 291 300 264 235 214 214 218 227 233 294 298 222 242 261 271 245 273 248 212 215 205 217 210 220 214 223 217 218 211 201 175 175
312 309 306 299 298 293 283 263 204 212 207 266 279 346 274 163 185 203 195 195 199 214 250 256 253 263 267 260 239 209 221 261 276 242 334 267 214 220 216 214 205 200 186 181
312 311 306 298 288 244 228 338 74 171 180 255 291 286 174 150 140 157 165 167 154 208 259 238 252 250 214 258 251 108 302 285 269 262 271 270 247 227 224 210 210 192 190 179
314 312 303 289 259 211 250 242 205 164 208 236 263 268 187 190 172 158 160 158 170 196 242 251 246 243 225 254 236 324 317 309 267 248 243 256 285 270 236 203 177 176 174 169
318 316 300 174 208 211 134 139 165 202 255 274 259 298 49 156 84 94 173 221 187 174 217 234 253 233 220 263 313 313 326 309 294 285 264 250 243 253 218 186 182 174 177 176
323 305 218 206 132 177 237 141 176 191 196 225 258 245 286 171 147 178 185 197 190 191 202 216 224 246 273 279 297 300 303 298 297 285 237 217 229 228 198 184 183 177 180 175
360 299 290 354 285 215 209 219 216 175 215 192 239 246 284 51 172 176 230 185 163 190 166 225 229 221 131 317 303 305 304 303 295 278 253 257 232 208 188 177 171 171 169 173
309 292 295 272 225 217 239 216 183 224 254 182 236 204 193 139 124 235 185 200 212 172 171 208 231 99 350 325 322 326 327 329 1 24 158 178 202 179 177 158 168 167 169 169
313 231 236 218 177 245 227 204 190 214 187 167 312 6 138 224 205 267 184 167 227 274 195 212 95 25 351 356 349 337 352 358 32 64 89 119 135 155 151 152 159 161 160 168
272 269 271 225 190 228 224 248 343 63 279 297 324 258 210 204 194 242 227 91 230 196 249 165 104 5 3 18 12 2 4 4 27 38 76 83 90 98 117 137 152 156 162 165
230 246 247 230 261 276 259 261 265 235 275 293 287 228 210 209 208 224 196 166 218 221 244 110 113 29 18 31 18 15 17 352 13 22 42 68 83 95 105 124 132 151 157 162
213 242 263 265 277 259 217 238 249 265 294 292 243 272 264 196 306 223 153 249 184 145 92 109 110 71 31 38 31 15 7 9 4 16 27 52 70 92 111 102 110 134 146 157
224 217 265 313 321 289 298 293 252 7 289 264 285 251 0 302 246 220 203 321 97 116 106 93 78 64 33 29 29 15 3 8 11 28 31 50 78 94 94 91 91 110 129 144